Wind_Speed
18 17 16 16 15 14 15 15 16 15 14 14 14 14 12 8 5 1 4 8 6 5 6 7 10 13 12 15 17 15 13 15
18 19 16 14 15 15 15 16 17 16 15 15 15 14 11 7 3 2 6 8 7 5 7 8 11 13 11 16 17 14 11 14
17 21 19 15 14 15 16 16 17 17 17 17 17 15 11 7 4 3 6 7 6 6 7 9 12 10 12 17 18 14 11 13
21 19 23 20 16 17 17 18 19 19 19 19 18 15 12 8 5 4 5 7 5 6 7 10 9 11 13 17 16 13 10 12
28 21 20 24 20 19 18 19 20 21 22 20 20 16 12 9 7 6 4 7 6 5 7 9 9 11 13 16 15 12 11 12
32 27 22 23 24 22 21 22 22 23 24 23 21 17 13 10 8 6 3 5 6 7 8 10 10 11 13 15 14 12 11 11
32 32 26 23 24 26 25 24 24 25 27 26 22 18 15 12 10 7 5 4 6 8 8 9 10 11 13 13 11 13 12 12
34 36 35 30 26 29 29 28 26 27 29 28 24 20 16 14 12 9 6 6 6 9 8 7 9 11 12 12 9 10 12 12
31 35 37 36 36 34 30 30 29 28 30 30 27 22 18 16 13 11 9 7 8 8 9 8 9 10 11 11 10 10 10 11
28 32 34 37 37 37 37 34 31 30 31 32 29 25 21 18 16 13 11 9 9 9 10 10 9 11 11 10 9 9 9 11
30 38 38 39 35 39 38 38 36 35 33 33 32 28 24 21 18 15 13 11 10 11 11 12 10 11 11 9 10 9 10 10
36 38 39 44 44 41 42 41 40 38 36 34 34 31 27 24 21 19 16 14 11 12 13 13 12 10 11 9 10 10 9 9
40 38 40 40 44 44 47 45 40 39 38 37 37 34 30 27 24 22 19 17 14 14 13 14 15 11 11 11 11 11 9 9
40 41 39 40 46 49 54 53 50 46 42 38 37 36 33 30 27 24 21 18 17 16 15 14 16 14 12 12 11 11 10 10
40 41 41 41 41 40 51 54 52 49 45 42 39 37 36 33 30 26 23 20 18 18 19 16 16 16 14 13 13 12 11 10
40 42 44 44 42 44 45 48 49 48 44 42 43 41 40 38 34 30 27 23 20 19 21 20 17 16 17 14 14 13 12 11
43 43 45 45 41 43 44 43 38 35 43 50 45 45 43 42 37 34 30 26 23 21 20 22 18 17 16 16 15 15 14 12
44 46 46 45 39 41 42 42 43 39 26 50 51 48 48 45 41 37 33 30 26 25 22 20 19 19 18 18 17 18 15 13
45 45 45 42 37 35 39 41 41 40 36 37 57 52 52 48 43 39 36 35 32 29 26 23 21 20 20 19 19 20 18 16
47 46 46 44 41 34 34 36 38 40 40 42 37 60 54 55 49 46 42 43 37 33 28 27 25 22 23 20 20 21 22 19
Wind_Direction
232 223 200 197 200 205 205 205 198 194 192 189 182 170 164 160 140 84 339 321 304 301 310 331 341 345 349 344 349 357 359 358
235 226 208 199 199 204 208 206 203 200 194 193 187 180 177 174 153 333 320 322 293 283 294 322 333 341 342 340 351 353 357 357
230 225 223 208 207 208 208 210 209 201 195 193 192 190 188 189 190 345 342 341 298 284 294 316 332 336 336 342 347 347 350 356
232 223 225 219 214 215 211 210 208 202 199 198 197 201 200 203 216 314 355 6 331 288 300 315 324 333 335 341 343 339 342 351
227 224 225 225 222 220 218 213 211 203 203 202 205 208 210 213 237 294 346 15 356 309 310 317 320 328 331 335 340 333 336 347
227 225 227 230 228 221 219 217 211 208 206 206 210 213 215 226 245 277 313 4 350 317 304 311 317 319 324 331 336 330 331 340
231 229 224 220 231 227 221 218 214 212 212 213 213 215 218 228 244 268 295 335 341 333 314 313 311 318 322 324 333 330 331 337
231 230 226 224 230 232 224 219 215 214 215 219 217 219 224 232 243 263 279 306 314 330 325 314 312 317 322 315 322 332 333 336
229 226 226 231 232 233 228 224 217 215 216 222 221 222 227 233 242 258 267 285 299 310 317 307 309 316 317 310 315 326 334 330
232 227 226 227 224 228 233 228 223 217 217 223 226 224 228 234 240 253 264 277 284 288 302 297 304 310 310 304 305 316 327 327
230 231 227 225 227 228 228 226 231 230 219 222 227 228 230 234 239 249 258 270 275 277 286 293 296 304 304 299 297 308 317 328
232 229 233 231 226 233 228 229 228 224 219 221 227 229 228 234 237 247 253 259 270 276 280 288 290 299 302 291 287 295 310 324
234 235 237 235 229 232 231 230 226 224 220 219 225 228 228 232 234 242 249 255 263 271 283 283 285 292 298 286 278 285 300 314
235 241 239 246 237 226 227 226 228 224 221 221 222 226 229 232 235 239 245 254 263 271 279 287 284 283 294 286 271 278 294 307
235 241 246 240 245 234 224 220 220 223 220 221 222 226 230 231 235 237 240 247 257 271 281 291 276 278 287 284 269 273 282 299
234 238 244 245 242 246 242 232 228 222 221 222 225 224 227 231 234 235 238 242 249 263 280 285 272 274 280 283 263 265 273 289
234 236 242 247 247 247 257 256 249 219 231 219 224 227 228 230 232 234 235 240 246 261 275 284 274 270 282 281 264 260 266 278
231 236 240 247 251 250 249 258 267 251 242 227 221 225 227 231 232 235 236 239 247 253 266 283 272 269 277 286 269 260 261 265
230 232 237 242 249 248 252 252 257 263 268 227 226 220 226 231 232 235 238 241 243 249 257 272 276 272 273 283 271 258 259 260
231 233 234 238 244 247 248 252 253 258 262 265 260 225 221 228 230 230 233 237 240 245 254 264 275 272 269 278 276 261 258 257
Height
5865 5866 5865 5865 5865 5867 5868 5869 5870 5870 5871 5872 5873 5874 5874 5875 5876 5876 5875 5875 5874 5874 5873 5872 5872 5870 5869 5867 5865 5863 5860 5859
5861 5863 5864 5863 5863 5865 5867 5868 5868 5869 5870 5871 5873 5873 5874 5875 5875 5875 5875 5874 5873 5873 5872 5871 5870 5869 5868 5866 5864 5862 5860 5859
5857 5859 5862 5862 5862 5863 5865 5867 5868 5868 5869 5870 5872 5873 5874 5874 5874 5874 5874 5872 5872 5871 5871 5870 5869 5868 5867 5865 5863 5861 5860 5859
5853 5855 5858 5859 5860 5862 5862 5864 5866 5867 5868 5869 5871 5872 5873 5873 5873 5873 5872 5871 5870 5870 5870 5869 5868 5867 5866 5864 5862 5861 5860 5858
5850 5852 5853 5856 5858 5859 5860 5861 5863 5865 5866 5868 5869 5871 5872 5872 5872 5872 5871 5870 5869 5869 5869 5868 5867 5866 5865 5863 5862 5861 5860 5858
5844 5847 5850 5853 5855 5856 5858 5859 5861 5862 5864 5866 5867 5869 5870 5871 5871 5871 5870 5869 5868 5868 5867 5867 5866 5865 5864 5863 5861 5860 5859 5858
5838 5843 5846 5849 5852 5854 5855 5856 5858 5860 5861 5863 5865 5867 5868 5869 5869 5869 5868 5868 5867 5866 5865 5865 5865 5864 5863 5861 5860 5860 5859 5858
5830 5835 5841 5844 5847 5850 5852 5853 5855 5858 5859 5860 5863 5865 5866 5867 5867 5867 5867 5866 5866 5865 5864 5863 5863 5863 5861 5860 5859 5858 5858 5857
5823 5827 5832 5837 5841 5845 5848 5850 5852 5854 5856 5857 5860 5862 5864 5865 5865 5866 5865 5865 5864 5863 5863 5862 5861 5861 5860 5859 5858 5857 5857 5857
5819 5821 5826 5830 5835 5839 5843 5846 5848 5850 5852 5854 5856 5859 5861 5862 5863 5863 5863 5863 5862 5861 5861 5860 5860 5859 5858 5857 5857 5856 5855 5855
5813 5815 5819 5824 5830 5833 5837 5840 5843 5847 5849 5850 5852 5855 5858 5860 5861 5861 5861 5861 5860 5860 5859 5858 5858 5858 5857 5856 5856 5855 5854 5854
5806 5808 5812 5817 5822 5826 5831 5833 5837 5841 5844 5846 5847 5851 5853 5856 5858 5858 5858 5859 5858 5857 5857 5856 5855 5855 5855 5854 5854 5854 5853 5852
5799 5802 5806 5810 5816 5820 5824 5827 5831 5835 5838 5841 5842 5845 5849 5851 5853 5854 5855 5856 5856 5855 5854 5853 5853 5853 5852 5852 5852 5852 5851 5850
5792 5795 5800 5803 5806 5812 5814 5817 5822 5827 5831 5835 5838 5840 5844 5846 5848 5850 5851 5852 5852 5852 5851 5851 5851 5850 5850 5850 5850 5850 5849 5849
5786 5788 5791 5795 5798 5799 5803 5808 5813 5819 5824 5829 5834 5837 5839 5841 5843 5846 5848 5848 5849 5848 5848 5848 5847 5847 5846 5847 5848 5847 5847 5846
5777 5781 5782 5784 5789 5792 5795 5801 5804 5812 5816 5822 5827 5831 5833 5836 5838 5841 5843 5844 5845 5845 5845 5844 5843 5844 5844 5843 5844 5844 5844 5844
5769 5773 5775 5777 5783 5786 5788 5788 5794 5802 5808 5813 5818 5824 5827 5830 5833 5835 5838 5840 5840 5842 5841 5840 5840 5840 5840 5840 5841 5841 5841 5842
5761 5765 5769 5772 5777 5780 5782 5785 5788 5790 5798 5804 5809 5816 5821 5825 5826 5830 5832 5835 5836 5837 5837 5837 5836 5836 5837 5837 5837 5838 5838 5838
5753 5758 5762 5766 5769 5774 5776 5780 5783 5786 5789 5794 5799 5805 5813 5820 5821 5824 5828 5829 5830 5831 5832 5832 5832 5832 5833 5833 5833 5834 5835 5835
5745 5748 5753 5758 5762 5766 5771 5773 5778 5781 5784 5786 5791 5796 5803 5810 5814 5816 5819 5820 5822 5825 5827 5828 5828 5828 5829 5829 5829 5830 5830 5831